Sime Cop

Chefscout - Hrvatski Dragovoljac
17 Jul 2027
Samstag
Verarbeitung

Persönlichkeit

Anpassungsfähigkeit (2) Ehrgeiz (17) Kontroverse (9) Loyalität (8) Druck (2) Professionalität (12) Fairness (19) Temperament (15)

Profil

Trainerstil Demokratisch
Lizenz Kontinentale A
Entschlossenheit 7
Menschenführung 2
Motivation 8
Disziplin 3
Arbeitszufriedenheit
100%
Ermüdung
0%
Rolle Chefscout
Gehalt 32.5K p/W
Vertrag 14.03.2028

Leistung

Verhalten Gut
Trainingseffektivität
28%
Spielerentwicklung
30%
Verletzungsprävention
15%
Taktische Umsetzung
45%

Letzte Ereignisse

Spieler begutachtet 14T her
Nahm an einer Scouting-Besprechung teil 14T her
Nahm an einer Scouting-Besprechung teil 14T her
Nahm an einer Scouting-Besprechung teil 14T her
Nahm an einer Scouting-Besprechung teil 21T her
Nahm an einer Scouting-Besprechung teil 21T her
Nahm an einer Scouting-Besprechung teil 21T her
Nahm an einer Scouting-Besprechung teil 28T her

Aktuell beobachtet

134
Spieler Verein Status Fähigkeit Vertrauen Beobachtet Zuletzt beobachtet Letzte Stimme
Gavin Kilkenny Swindon Town Aktiv 126 / 93 40% 1 28.06.2027 -
Lloyd Jones Charlton Athletic Aktiv 122 / 135 40% 1 28.06.2027 -
Freddie Draper Lincoln City Aktiv 109 / 123 40% 2 03.06.2027 -
Francesco Petito Dolomiti Bellunesi Aktiv 81 / 88 40% 1 03.06.2027 -
Charlie Whitaker Tranmere Rovers Aktiv 98 / 102 40% 1 01.06.2027 -
Elliot Bonds Fleetwood Town Aktiv 97 / 114 40% 1 01.06.2027 -
Jordan Gabriel Port Vale Aktiv 103 / 115 40% 2 31.05.2027 -
Ryan Glover Barnet Aktiv 105 / 84 40% 1 31.05.2027 -
Ronan Hale Gillingham Aktiv 119 / 118 40% 3 30.05.2027 -
Stephen Humphrys Bradford City Aktiv 99 / 120 40% 4 30.05.2027 -
Stephen Amankona Aduana Stars Aktiv 76 / 74 40% 2 29.05.2027 -
Marco Tumminello Benevento Aktiv 121 / 105 40% 3 28.05.2027 -
Marcus Browne AFC Wimbledon Aktiv 105 / 96 40% 2 28.05.2027 -
Ryan Graydon Salford City Aktiv 93 / 115 40% 1 27.05.2027 -
Guillaume Furrer Lecco Aktiv 94 / 102 40% 1 27.05.2027 -
Christian Saydee Wigan Athletic Aktiv 91 / 107 40% 3 26.05.2027 -
Lewis McCann Fleetwood Town Aktiv 96 / 115 40% 6 25.05.2027 -
Saliou Guindo Real Bamako Aktiv 94 / 110 40% 2 25.05.2027 -
Davide Bragantini Mantova Aktiv 112 / 119 40% 1 25.05.2027 -
Sam Nombe Milton Keynes Dons Aktiv 102 / 100 40% 1 23.05.2027 Mehr Infos nötig
Jake Beesley Burton Albion Aktiv 121 / 95 40% 1 22.05.2027 -
German Onugkha Rodina Aktiv 124 / 108 40% 4 21.05.2027 -
Will Davies Fleetwood Town Aktiv 89 / 102 40% 2 20.05.2027 -
Matías Contrera Northampton Town Aktiv 113 / 117 40% 1 20.05.2027 -
Andrei Coubiş Lincoln City Aktiv 99 / 134 40% 1 20.05.2027 -
Dean Campbell Northampton Town Aktiv 99 / 118 40% 1 20.05.2027 -
Iwan Morgan Grimsby Town Aktiv 90 / 136 40% 4 17.05.2027 -
Harry Clifton Crewe Alexandra Aktiv 111 / 117 40% 1 17.05.2027 -
Ryan Wintle Milton Keynes Dons Aktiv 126 / 123 40% 1 17.05.2027 Mehr Infos nötig
Sheyi Ojo Rotherham United Aktiv 113 / 127 40% 1 17.05.2027 -
Jonathan Okoronkwo Torpedo Moscow Aktiv 91 / 98 40% 2 15.05.2027 -
Jordan Graham Newport County Aktiv 108 / 93 40% 1 15.05.2027 -
Daniel Harvie Wycombe Wanderers Aktiv 107 / 113 40% 1 15.05.2027 -
Ante Aralica Lokomotiv Sofia Aktiv 121 / 108 40% 1 15.05.2027 -
Samuel Tetteh Ashanti Gold Aktiv 97 / 95 40% 1 14.05.2027 -
Calum Kavanagh Oldham Athletic Aktiv 88 / 110 40% 1 14.05.2027 -
Liam Thompson Mansfield Town Aktiv 99 / 102 40% 1 13.05.2027 -
Sam Curtis Swindon Town Aktiv 95 / 108 40% 1 13.05.2027 -
Georgie Gent Barnsley Aktiv 101 / 124 40% 1 11.05.2027 -
Matt Smith Newport County Aktiv 99 / 80 40% 1 11.05.2027 -
Kyle Wootton Stockport County Aktiv 104 / 136 40% 2 09.05.2027 -
Aaron Morley Wycombe Wanderers Aktiv 103 / 119 40% 1 09.05.2027 -
Ryan Sweeney Mansfield Town Aktiv 98 / 103 40% 1 09.05.2027 -
Nicola Dalmonte Trento Aktiv 95 / 113 40% 1 09.05.2027 -
Josh Koroma Leyton Orient Aktiv 127 / 117 40% 2 07.05.2027 -
Thalys Almería Aktiv 141 / 110 40% 1 07.05.2027 -
Dilan Markanday Chesterfield Aktiv 98 / 121 40% 1 05.05.2027 -
Kyreece Lisbie Colchester United Aktiv 112 / 96 40% 1 04.05.2027 -
Phoenix Patterson Stevenage Aktiv 89 / 116 40% 1 04.05.2027 -
Samuel Kalu Botev Plovdiv Aktiv 133 / 117 40% 4 03.05.2027 Beobachten
Fabrizio Cavegn Bristol Rovers Aktiv 108 / 132 40% 2 01.05.2027 -
Camillo Tavernelli Arezzo Aktiv 98 / 132 40% 2 30.04.2027 -
Kelly Saravanan Salford City Aktiv 118 / 115 40% 2 30.04.2027 -
Aaron Drinan Swindon Town Aktiv 93 / 96 40% 1 30.04.2027 -
Jordan Gibson Doncaster Rovers Aktiv 93 / 108 40% 1 30.04.2027 -
Rui Costa Port Vale Aktiv 117 / 115 40% 4 28.04.2027 -
George Byers Port Vale Aktiv 92 / 94 40% 1 28.04.2027 -
Simone Mazzocchi Cosenza Aktiv 126 / 102 40% 1 28.04.2027 -
Mohamed Mallahi Pro Vercelli Aktiv 87 / 88 40% 3 27.04.2027 -
Leonardo Candellone Juve Stabia Aktiv 109 / 112 40% 2 24.04.2027 -
Cheickna Samaké Djoliba Aktiv 122 / 101 40% 2 23.04.2027 -
Thomas Appiah Hearts of Oak Aktiv 77 / 101 40% 2 22.04.2027 -
Nnamdi Ofoborh Barnet Aktiv 101 / 106 40% 1 22.04.2027 -
Friday Ubong Hearts of Oak Aktiv 88 / 101 40% 2 21.04.2027 -
Callum Paterson Milton Keynes Dons Aktiv 96 / 91 40% 1 21.04.2027 -
Cameron McGeehan Doncaster Rovers Aktiv 131 / 106 40% 1 18.04.2027 -
Lewis Richards Crawley Town Aktiv 83 / 101 40% 1 18.04.2027 -
Giuseppe Sibilli Juve Stabia Aktiv 114 / 120 40% 1 17.04.2027 -
Moussakoye Diallo Stade Malien Aktiv 82 / 116 40% 1 16.04.2027 -
Tony Springett Barnet Aktiv 108 / 119 40% 1 14.04.2027 -
Ismail Saadi JS Saoura Aktiv 123 / 100 40% 2 12.04.2027 -
João Paulo Crawley Town Aktiv 110 / 116 40% 1 12.04.2027 -
George Lloyd Shrewsbury Town Aktiv 81 / 71 40% 1 11.04.2027 -
Kenan Dervišagić Floriana Aktiv 101 / 100 40% 2 09.04.2027 -
Emanuele Pecorino Catanzaro Aktiv 112 / 122 40% 1 09.04.2027 -
Matthew Dennis Notts County Aktiv 118 / 105 40% 1 07.04.2027 -
Javi Zarzo Gubbio Aktiv 93 / 115 40% 1 07.04.2027 -
Edmund Paintsil Liberty Professionals Aktiv 112 / 112 40% 1 06.04.2027 -
Reeco Hackett Lincoln City Aktiv 88 / 121 40% 1 06.04.2027 -
Prince Ukachukwu Victoria United Aktiv 113 / 100 40% 3 04.04.2027 -
Edarlyn Reyes Arsenal Tula Aktiv 105 / 121 40% 1 03.04.2027 -
Bradley Fink Wycombe Wanderers Aktiv 128 / 91 40% 2 25.03.2027 -
Matty Stevens AFC Wimbledon Aktiv 90 / 85 40% 1 24.03.2027 -
Borna Knezović Casarano Aktiv 83 / 128 40% 1 21.03.2027 -
Hamdi Labidi Olympique Akbou Aktiv 81 / 110 40% 1 15.03.2027 -
Anthony Scully Shrewsbury Town Aktiv 116 / 82 40% 1 14.03.2027 -
Miloš Jovičić Zabbar St. Patrick Aktiv 88 / 97 40% 1 13.03.2027 -
Benard Mundi PWD Bamenda Aktiv 97 / 77 40% 1 13.03.2027 -
Jules Armand Kooh Dynamo Douala Aktiv 109 / 89 40% 1 12.03.2027 -
Alexandr Yushin Torpedo Moscow Aktiv 94 / 109 40% 1 11.03.2027 -
Jeffrey Sulemana Hasaacas Aktiv 72 / 103 40% 1 08.03.2027 -
Maxim Kutovoy Salyut Aktiv 83 / 84 40% 1 05.03.2027 -
Harrison Inusah BA All Stars Aktiv 99 / 105 40% 1 04.03.2027 -
Vinko Rozić Istra 1961 Aktiv 100 / 121 40% 3 03.03.2027 -
Lamine Diakité Djoliba Aktiv 80 / 90 40% 1 09.02.2027 -
Jere Vrcić Birkirkara Aktiv 85 / 76 40% 1 09.02.2027 -
Ilja Safronov Rotor Aktiv 98 / 111 40% 1 06.02.2027 -
Karlo Špeljak Sibenik Aktiv 117 / 96 40% 1 03.02.2027 -
Dale Taylor Blackpool Aktiv 91 / 93 40% 1 02.02.2027 -
Robert Mizo Aswan Aktiv 106 / 121 40% 1 26.01.2027 -
Franklin Sasere Birkirkara Aktiv 89 / 99 40% 1 12.01.2027 -
Ante Ćorić Sibenik Aktiv 108 / 105 40% 2 11.01.2027 -
Silvio Goričan Istra 1961 Aktiv 118 / 112 40% 1 11.01.2027 -
Mario Ćurić Torpedo Moscow Aktiv 94 / 113 40% 1 31.12.2026 -
Antonio Bosec HNK Vukovar 1991 Aktiv 122 / 101 40% 1 31.12.2026 Mehr Infos nötig
Eniss Shabani HNK Vukovar 1991 Aktiv 118 / 115 40% 2 08.12.2026 Mehr Infos nötig
Libor Holík Spartak Trnava Aktiv 107 / 115 40% 1 07.12.2026 Mehr Infos nötig
Karlo Tomašec ND Gorica Aktiv 90 / 89 40% 2 27.11.2026 -
Marko Musulin Tarxien Rainbows Aktiv 116 / 98 40% 3 25.11.2026 -
Dimitrije Kamenović Lokomotiva Zagreb Verloren 108 / 119 40% 1 25.11.2026 Mehr Infos nötig
Taher Mohamed Al Ahly Aktiv 143 / 124 40% 1 22.11.2026 -
Marin Pasalic Zadar Aktiv 88 / 99 40% 1 22.11.2026 -
Ivan Delić Dugopolje Aktiv 82 / 94 40% 1 18.11.2026 -
Kristijan Blaževski Lucko Aktiv 106 / 104 40% 1 16.11.2026 -
Miłosz Kozak HNK Vukovar 1991 Aktiv 118 / 114 40% 1 16.11.2026 -
Luka Mamić NK Varazdin Aktiv 96 / 108 40% 1 13.11.2026 -
Luka Bijol NK Domzale Aktiv 119 / 103 40% 1 12.11.2026 -
Sven Opačić NK Krsko Aktiv 83 / 84 40% 1 11.11.2026 -
Silvio Ilinković NK Varazdin Aktiv 101 / 98 40% 1 11.11.2026 -
Ivan Radošević Sesvete Aktiv 104 / 78 40% 1 10.11.2026 -
Emil Frederiksen Istra 1961 Aktiv 99 / 97 40% 1 07.11.2026 -
Abdoulie Sanyang Hajduk Split Aktiv 128 / 105 40% 2 06.11.2026 -
Dimitar Mitrovski Olimpija Ljubljana Aktiv 105 / 121 40% 1 06.11.2026 -
Antonio Maurić Istra 1961 Aktiv 120 / 118 40% 1 07.10.2026 -
Bruno Unušić Rudes Aktiv 110 / 116 40% 1 07.10.2026 -
Luka Silagadze Podbrezova Aktiv 98 / 104 40% 1 06.10.2026 -
Jay Matete Milton Keynes Dons Aktiv 102 / 96 40% 1 06.10.2026 -
Stephen Odey Ittihad Aktiv 127 / 128 40% 1 31.08.2026 -
Victor Adeboyejo El Masry Aktiv 113 / 96 40% 1 24.08.2026 -
Kevin Quevedo Universitario Aktiv 139 / 136 40% 1 04.08.2026 -
Vilim Krušlin Sesvete Aktiv 89 / 98 40% 1 04.08.2026 -
Ante Roguljić Diosgyor Aktiv 115 / 103 40% 1 02.08.2026 -
Nicolás Previtali Atlanta Aktiv 117 / 106 40% 1 02.08.2026 -
Marin Jakoliš Noah Aktiv 87 / 102 40% 1 02.08.2026 -